Location: Aldenham
(51.6667°N, 0.3500°W)
Time: 04:25:27
(UTC+00:00)

Cosmos 2026 Rocket - Visible Passes

Search period start: 19 February 2026 00:00
Search period end: 01 March 2026 00:00
Orbit: 938 x 1000 km, 82.9° (Epoch: 18 February)

Date Brightness Start Highest point End Pass type
(mag) Time Alt. Az. Time Alt. Az. Time Alt. Az.
19 Feb 5.8 20:52:52 20° NNE 20:52:52 20° NNE 20:54:38 10° NNE visible
19 Feb 6.1 22:37:21 20° NNW 22:37:21 20° NNW 22:39:39 10° N visible
20 Feb 6.6 05:47:42 10° NNE 05:50:45 14° NE 05:53:46 10° E visible
20 Feb 5.9 19:31:02 12° NE 19:31:02 12° NE 19:31:33 10° NE visible
20 Feb 5.5 21:15:30 27° N 21:15:30 27° N 21:18:07 10° N visible
20 Feb 6.3 22:59:58 18° NW 22:59:58 18° NW 23:02:33 10° NNW visible
21 Feb 6.4 06:10:11 10° NNE 06:14:45 21° ENE 06:19:15 10° ESE visible
21 Feb 5.5 19:53:35 19° NE 19:53:35 19° NE 19:55:39 10° NNE visible
21 Feb 5.3 21:38:02 33° N 21:38:02 33° N 21:41:27 10° N visible
21 Feb 6.5 23:22:30 13° NW 23:22:30 13° NW 23:24:59 10° NNW visible
22 Feb 5.0 20:15:59 31° NE 20:15:59 31° NE 20:19:24 10° NNE visible
22 Feb 5.4 22:00:26 33° NW 22:00:26 33° NW 22:04:39 10° N visible
23 Feb 6.8 05:13:34 10° NNE 05:15:16 11° NE 05:16:58 10° ENE visible
23 Feb 5.6 18:53:45 14° ENE 18:53:45 14° ENE 18:55:48 10° NE visible
23 Feb 4.3 20:38:11 54° NNE 20:38:11 54° NNE 20:42:57 10° NNE visible
23 Feb 5.8 22:22:37 25° WNW 22:22:37 25° WNW 22:27:40 10° N visible
24 Feb 6.5 05:35:26 10° NNE 05:39:21 17° NE 05:43:14 10° E visible
24 Feb 5.0 19:15:38 24° ENE 19:15:38 24° ENE 19:20:15 10° NNE visible
24 Feb 4.1 21:00:03 72° W 21:00:06 72° WNW 21:06:21 10° N visible
24 Feb 6.4 22:44:27 14° WNW 22:46:32 17° NW 22:50:22 10° NNW visible
25 Feb 6.2 05:58:11 10° N 06:03:16 26° ENE 06:08:15 10° ESE visible
25 Feb 4.4 19:36:50 32° ESE 19:38:29 37° E 19:44:08 10° NNE visible
25 Feb 4.8 21:21:09 32° WSW 21:23:38 46° WNW 21:29:37 10° N visible
25 Feb 6.7 23:09:21 10° WNW 23:10:39 11° NW 23:11:56 10° NW visible
26 Feb 5.6 18:15:54 10° E 18:17:44 11° ENE 18:19:32 10° NE visible
26 Feb 3.9 19:55:30 10° S 20:01:39 59° E 20:07:46 10° NNE visible
26 Feb 5.6 21:41:52 10° SW 21:47:18 30° WNW 21:52:44 10° N visible
27 Feb 6.7 05:00:50 10° NNE 05:03:55 14° NE 05:06:58 10° E visible
27 Feb 5.2 18:36:22 10° ESE 18:40:32 19° ENE 18:44:42 10° NE visible
27 Feb 3.9 20:18:40 10° S 20:24:58 88° W 20:31:14 10° N visible
27 Feb 6.2 22:06:40 10° WSW 22:11:09 20° WNW 22:15:37 10° NNW visible
28 Feb 6.5 05:23:20 10° NNE 05:27:54 21° ENE 05:32:24 10° ESE visible
28 Feb 4.7 18:58:12 10° SE 19:03:31 30° E 19:08:47 10° NNE visible
28 Feb 4.5 20:42:15 10° SSW 20:48:26 57° WNW 20:54:33 10° N visible
28 Feb 6.7 22:32:21 10° W 22:35:10 13° NW 22:37:58 10° NNW visible
